GEFSMA_850_meantemp_162.txt.gz
Temperature
12 12 12 11 11 11 11 11 10 10 10 10 10 10 10 10 10 10 10 10 10 10 10 9 9 9 10 9 9 9 9 9 9 9 9 9 9 9 8 8 8 8 8
12 12 11 11 11 11 11 10 10 10 10 10 10 10 10 10 10 10 10 10 10 10 10 9 9 9 9 9 9 9 9 9 9 9 9 9 8 8 8 8 8 8 7
12 12 11 11 11 11 10 10 10 10 10 10 10 10 10 10 10 10 10 10 10 10 10 10 9 9 9 9 9 9 9 9 9 9 9 8 8 8 8 8 7 7 7
12 12 11 11 11 10 10 10 10 10 10 10 10 10 10 10 10 10 10 10 10 10 10 10 9 9 9 9 9 9 9 9 9 9 8 8 8 8 7 7 7 7 6
12 12 11 11 11 10 10 10 10 10 10 10 10 10 10 10 10 10 10 9 9 10 10 10 9 9 9 9 9 9 9 9 9 9 8 8 8 7 7 7 7 6 6
12 11 11 11 11 10 10 10 10 10 10 10 10 9 9 9 10 10 10 10 9 9 10 10 10 9 9 9 9 9 9 9 8 8 8 8 7 7 7 6 6 6 5
12 11 11 11 10 10 10 10 10 10 10 9 9 9 9 9 9 9 9 9 9 9 9 9 9 9 9 9 9 9 9 8 8 8 8 7 7 7 6 6 6 5 5
11 11 11 11 10 10 10 10 10 9 9 9 9 9 9 9 9 9 9 9 9 9 9 9 9 9 9 9 9 9 9 8 8 8 8 7 6 6 6 5 5 5 4
11 11 11 11 10 10 10 10 10 9 9 9 9 10 9 9 9 9 9 9 9 9 9 10 9 9 9 9 9 9 9 8 8 8 7 7 6 6 5 5 5 4 4
11 11 11 11 10 10 10 10 10 10 10 9 9 10 10 10 10 9 9 9 9 9 9 9 9 9 9 9 9 9 9 8 8 7 7 6 6 5 5 4 4 4 3
11 11 11 11 10 10 10 10 10 10 10 10 10 10 10 10 10 10 9 9 9 9 9 9 9 9 9 9 9 9 8 8 8 7 7 6 6 5 4 4 4 3 3
11 11 11 11 11 10 10 10 10 10 10 10 10 10 10 10 10 10 10 10 9 9 9 9 9 9 9 9 8 8 8 8 7 7 7 6 6 5 4 4 3 3 3
11 11 11 10 10 11 10 10 10 10 10 10 10 10 10 10 10 10 10 10 9 9 9 9 9 9 9 8 8 8 8 7 7 7 6 6 6 5 4 4 3 3 2
11 11 11 11 10 10 10 10 10 10 10 10 10 10 10 10 10 10 10 10 9 9 9 9 9 9 8 8 8 8 8 7 7 6 6 6 5 5 4 3 3 2 2
11 11 11 11 10 10 10 10 10 10 10 10 10 10 10 10 10 10 10 10 9 9 8 9 8 8 8 8 8 7 7 7 6 6 6 5 5 4 4 3 3 2 2
11 11 11 10 10 10 10 10 10 10 10 10 10 10 10 9 9 10 10 9 9 9 9 8 8 8 8 8 7 7 7 6 6 6 5 5 4 4 3 3 2 1 1
10 10 10 10 10 10 10 10 10 10 10 10 10 10 10 9 9 9 9 9 9 9 8 8 8 8 8 7 7 7 6 6 6 5 5 4 4 3 3 2 1 1 1
10 10 10 10 10 10 10 10 10 10 10 10 10 10 10 9 9 9 9 9 9 9 8 8 8 8 7 7 7 6 6 5 5 5 4 4 3 3 2 1 1 0 0
10 10 10 10 10 10 10 10 10 10 10 10 10 10 10 9 9 9 9 9 9 9 8 8 8 7 7 7 6 6 6 5 5 4 4 3 3 2 2 1 0 0 -0
10 10 10 10 10 10 10 10 10 10 10 10 10 10 10 10 9 9 9 9 9 8 8 8 7 7 7 6 6 5 5 5 5 4 3 3 2 2 1 1 0 -0 -1
10 10 10 10 10 10 10 10 10 10 10 10 10 10 10 9 9 9 9 9 8 8 8 7 7 6 6 6 5 5 5 5 4 4 3 3 2 2 1 1 0 -0 -1
10 10 10 10 10 10 10 10 10 10 10 10 10 10 9 9 9 9 8 8 8 8 8 7 7 6 6 5 5 5 4 4 3 3 3 3 2 1 1 0 -0 -1 -1
9 10 10 10 10 10 10 10 10 10 10 10 10 10 9 9 9 8 8 8 8 7 7 7 7 6 6 5 5 4 4 3 3 2 2 2 2 1 1 0 -1 -1 -2
9 9 9 10 10 10 10 10 10 10 10 10 10 10 9 9 9 8 8 8 7 7 7 6 6 6 5 5 4 4 3 3 2 2 1 1 1 1 0 -0 -1 -1 -2
9 9 9 9 10 10 10 10 10 9 9 9 9 9 9 9 9 8 8 8 7 7 6 6 5 5 5 4 4 3 2 2 2 1 1 -0 -0 -0 0 -0 -1 -2 -2
9 9 9 9 9 10 10 10 9 9 9 9 9 9 9 8 8 8 8 7 7 7 6 6 5 5 4 4 3 3 2 2 1 0 -0 -1 -1 -2 -1 -1 -1 -2 -2

GEFSMA_850_meantemp_168.txt.gz
Temperature
13 13 13 13 13 13 12 12 12 12 11 11 11 11 11 11 11 11 11 10 10 10 10 10 10 10 10 10 10 10 10 9 9 9 9 9 9 9 9 8 8 8 8
13 13 13 13 13 13 12 12 12 11 11 11 11 11 11 11 11 10 10 10 10 10 10 10 10 10 9 9 9 9 9 9 9 9 9 9 9 9 8 8 8 8 7
13 13 13 13 13 12 12 12 11 11 11 11 10 10 10 10 10 10 10 10 10 10 10 10 10 10 9 9 9 9 9 9 9 9 9 9 8 8 8 8 8 7 7
12 12 12 13 12 12 12 11 11 11 10 10 10 10 10 10 10 10 10 10 10 10 10 10 10 10 10 9 9 9 9 9 9 9 9 9 8 8 8 7 7 7 6
12 12 12 12 12 12 11 11 11 11 10 10 10 10 10 10 10 10 10 10 10 10 10 10 10 10 10 9 9 9 9 9 8 8 8 8 8 8 7 7 7 6 6
12 12 12 12 12 11 11 11 11 10 10 10 10 10 10 10 10 10 10 10 10 10 10 10 10 9 9 9 9 9 9 8 8 8 8 8 8 7 7 6 6 6 6
12 11 11 11 11 11 11 11 10 10 10 10 10 9 9 9 9 10 10 10 10 10 10 10 10 9 9 9 9 9 9 8 8 8 8 8 7 7 6 6 6 5 5
11 11 11 11 11 11 11 10 10 10 10 10 9 9 9 9 9 9 9 10 10 10 10 9 9 9 9 9 9 9 9 8 8 8 7 7 7 6 6 5 5 5 5
11 11 11 11 11 11 11 11 10 10 10 9 10 9 9 9 9 9 9 9 10 10 9 9 9 9 9 9 9 9 8 8 8 8 8 7 6 6 5 5 5 5 4
11 11 11 11 11 10 11 11 10 10 10 10 9 10 10 10 9 9 9 9 9 9 9 9 9 9 9 9 9 9 8 8 8 8 7 7 6 6 5 5 5 4 4
10 10 10 10 10 10 10 10 10 10 10 10 10 10 10 10 10 10 9 9 9 10 10 9 9 9 9 9 9 9 8 8 8 8 7 7 6 5 5 4 4 4 3
10 10 10 10 10 10 10 10 10 10 10 10 10 10 10 10 10 10 10 10 10 10 10 10 9 9 9 9 8 8 8 8 8 7 7 6 6 6 5 4 4 3 3
9 10 10 10 10 10 10 10 10 10 10 10 10 10 10 10 11 11 11 10 10 10 9 9 9 9 9 8 8 8 8 7 7 7 7 6 6 5 5 4 3 3 3
9 10 10 10 10 10 10 10 10 10 10 10 10 10 10 10 10 11 11 10 9 9 9 9 9 9 9 8 8 8 8 7 7 6 6 6 6 5 5 4 3 3 2
9 10 10 10 10 10 10 10 10 10 10 10 10 10 10 10 10 10 10 11 10 9 9 9 9 9 9 8 8 7 7 7 7 6 6 5 5 5 4 4 3 2 2
9 9 9 9 9 9 10 9 9 9 9 9 9 9 10 10 10 10 10 10 10 10 9 9 9 9 8 8 8 7 7 7 6 6 6 5 5 4 4 3 2 2 1
9 9 9 9 9 9 9 9 9 9 9 9 9 9 9 9 9 10 10 10 10 10 10 9 9 9 8 8 7 7 7 6 6 6 5 5 4 4 3 3 2 1 1
9 9 9 9 9 9 9 9 9 9 9 9 9 9 9 9 9 9 9 9 9 9 9 9 9 8 8 8 7 7 6 6 6 5 5 4 4 3 3 2 1 1 0
8 9 9 9 9 9 9 9 9 9 9 9 9 9 9 9 9 9 9 9 9 9 9 9 9 8 8 7 7 6 6 6 5 5 4 4 3 3 2 2 1 1 0
8 8 9 9 9 9 9 9 9 9 9 9 9 9 9 9 9 9 9 9 9 8 8 8 8 8 7 7 6 6 6 5 5 5 4 3 3 2 2 1 1 0 -0
8 8 8 9 9 9 9 9 9 9 9 9 9 9 10 9 9 9 9 9 9 8 8 8 7 7 7 7 6 6 6 5 5 4 4 3 2 2 2 1 1 0 -1
8 8 8 8 9 9 9 9 9 9 9 9 9 9 9 9 9 9 9 9 8 8 8 8 7 7 7 7 6 5 5 5 4 4 3 3 2 2 1 1 0 -0 -1
7 8 8 8 8 9 9 9 9 9 9 9 9 9 9 9 9 9 8 8 8 8 8 7 7 7 7 6 6 5 5 4 4 3 3 3 2 1 1 0 -0 -1 -1
7 8 8 8 8 9 9 9 9 9 9 9 9 9 9 9 9 8 8 8 8 7 7 7 7 7 6 6 5 5 4 4 3 3 2 2 2 1 1 0 -1 -1 -1
7 7 8 8 8 8 8 8 8 8 9 9 9 9 9 9 8 8 8 8 7 7 7 7 6 6 6 5 5 4 4 3 3 2 1 1 1 1 1 -0 -1 -1 -2
7 7 7 7 8 8 8 8 8 8 8 8 8 8 8 8 8 8 8 7 7 7 7 6 6 6 5 5 4 4 3 3 2 1 1 1 0 -0 -0 -0 -1 -1 -2

GEFSMA_850_meantemp_174.txt.gz
Temperature
13 13 13 13 13 13 13 13 13 13 12 12 12 12 12 11 11 11 11 11 11 10 10 10 10 10 10 9 9 9 9 9 9 9 9 9 8 8 8 8 8 8 7
13 13 13 13 13 13 13 13 13 12 12 12 12 12 11 11 11 11 11 10 10 10 10 10 10 10 10 9 9 9 9 9 9 9 8 8 8 8 8 8 8 7 7
12 13 13 13 13 13 12 12 12 12 12 12 11 11 11 11 11 11 10 10 10 10 10 10 10 10 9 9 9 9 9 9 9 9 8 8 8 8 8 8 7 7 7
12 12 12 12 12 12 12 12 12 11 11 11 11 11 11 11 11 10 10 10 10 10 10 10 10 10 9 9 9 9 9 9 9 9 8 8 8 8 7 7 7 7 6
12 12 12 12 12 12 12 11 11 11 11 11 11 11 10 10 10 10 10 10 10 10 10 10 10 9 9 9 9 9 9 9 9 8 8 8 8 7 7 7 7 6 6
11 11 11 11 11 11 11 11 11 11 11 11 10 10 10 10 10 10 10 10 10 10 10 10 9 9 9 9 9 9 9 9 8 8 8 8 7 7 7 6 6 6 6
11 11 11 11 11 11 11 11 11 10 10 10 10 9 9 9 10 10 10 10 10 10 10 9 9 9 9 9 9 9 9 9 8 8 8 8 7 7 6 6 6 6 5
10 10 10 10 11 10 10 10 10 10 10 10 10 9 9 9 9 10 10 10 10 10 10 9 9 9 9 9 9 9 9 9 8 8 8 7 7 6 6 6 6 5 5
10 10 10 10 10 10 10 10 10 10 10 9 9 9 9 9 9 9 10 10 10 10 10 9 9 9 9 9 9 9 9 9 8 8 8 7 7 6 6 6 5 5 5
9 9 9 9 10 10 10 10 10 10 10 9 9 9 10 10 9 9 9 9 10 10 10 9 9 9 9 9 9 9 9 8 8 8 8 7 7 6 6 5 5 5 5
9 9 9 9 9 9 9 9 9 10 10 10 9 9 9 9 10 9 9 9 9 10 10 9 9 9 9 9 9 9 8 8 8 8 8 7 7 6 6 5 5 5 4
8 8 8 8 9 9 9 9 9 9 9 9 9 9 9 10 10 10 10 9 9 9 9 9 9 9 9 9 9 9 8 8 8 8 7 7 7 6 6 5 5 4 4
8 8 8 8 8 9 9 9 9 9 9 9 9 9 9 10 10 10 10 9 9 9 9 9 9 9 9 9 9 8 8 8 8 7 7 7 6 6 6 5 4 4 3
7 8 8 8 8 8 9 9 9 9 9 9 9 9 9 9 9 10 10 10 9 9 9 9 9 9 9 9 9 8 8 8 7 7 7 6 6 6 5 4 4 3 3
7 8 8 8 8 8 8 9 9 9 9 9 9 9 9 9 9 9 10 10 9 8 8 9 9 9 9 9 9 8 8 7 7 7 6 6 6 5 5 4 4 3 2
7 7 7 8 8 8 8 8 8 8 9 9 9 9 9 9 9 9 9 9 9 9 9 9 9 9 9 9 8 8 7 7 7 7 6 6 5 5 4 4 3 3 2
7 7 7 7 7 7 8 8 8 8 8 9 9 9 9 9 9 9 9 9 9 9 9 9 9 9 9 8 8 8 7 7 7 6 6 5 5 4 4 4 3 2 2
7 7 7 7 7 7 7 8 7 8 8 8 9 9 9 9 9 9 9 9 9 9 9 9 9 8 8 8 8 7 7 7 6 6 5 5 4 4 4 3 3 2 2
6 7 7 7 7 7 7 7 7 8 8 8 8 8 8 8 8 8 9 9 9 9 9 9 8 8 8 8 7 7 7 6 6 5 5 4 4 4 3 3 2 2 1
6 6 7 7 7 7 7 7 7 8 8 8 8 8 8 8 9 8 8 8 8 8 8 8 8 8 8 8 7 7 6 6 5 5 5 4 4 3 3 2 2 1 1
6 6 6 6 7 7 7 7 7 7 8 8 8 8 8 8 9 8 8 8 8 8 8 8 8 8 7 7 7 7 6 6 5 5 4 4 3 3 3 2 2 1 0
6 6 6 6 6 7 7 7 7 7 7 8 8 8 8 8 8 8 8 8 8 8 8 8 8 7 7 7 7 6 6 5 5 4 4 4 3 3 2 2 1 1 0
5 6 6 6 7 7 7 7 7 7 7 7 8 8 8 8 8 8 8 8 8 8 8 8 8 7 7 7 7 6 6 5 5 4 4 3 3 2 2 1 1 0 -0
5 6 6 6 6 7 7 7 7 7 7 7 8 8 8 8 8 8 8 8 8 7 7 7 7 7 7 7 6 6 6 5 4 4 3 3 3 2 1 1 0 -0 -1
5 5 6 6 6 7 7 7 7 7 7 7 7 8 8 8 8 8 7 7 7 7 7 7 7 7 6 6 6 6 5 4 4 3 3 2 2 2 1 1 -0 -1 -1
5 5 6 6 6 6 7 7 7 7 7 7 7 7 8 8 8 7 7 7 7 7 7 7 6 6 6 6 5 5 5 4 4 3 2 2 2 1 0 0 -0 -1 -1

GEFSMA_850_meantemp_180.txt.gz
Temperature
12 13 13 13 13 13 13 13 13 13 12 12 13 13 12 12 12 12 12 12 12 12 11 11 11 11 11 10 10 10 10 10 9 9 9 9 9 9 9 8 8 8 8
12 12 12 12 12 12 12 12 12 12 12 12 12 12 12 12 12 12 11 11 11 11 11 11 11 11 11 10 10 10 10 10 9 9 9 9 9 8 8 8 8 8 8
11 11 11 11 12 12 12 12 12 12 12 12 12 12 12 12 12 11 11 11 11 11 11 11 11 11 10 10 10 10 10 10 9 9 9 9 9 8 8 8 8 8 7
11 11 11 11 11 11 11 11 11 11 11 12 12 11 11 11 11 11 11 11 11 10 11 11 11 11 10 10 10 10 10 9 9 9 9 9 9 8 8 8 7 7 7
10 10 10 10 11 11 11 11 11 11 11 11 11 11 11 11 11 11 11 11 10 10 10 10 10 10 10 10 10 10 9 9 9 9 9 9 8 8 8 7 7 7 7
10 10 10 10 10 10 10 10 11 11 10 10 11 10 11 10 11 10 10 10 10 10 10 10 10 10 10 10 10 10 9 9 9 9 9 8 8 8 8 7 7 7 7
9 9 9 9 10 10 10 10 10 10 10 10 10 10 10 10 10 10 10 10 10 10 10 10 10 10 10 10 10 9 9 9 9 9 9 8 8 8 7 7 7 7 6
9 9 9 9 9 9 9 9 9 9 9 9 9 9 9 9 10 10 10 10 10 10 10 10 10 10 10 9 10 9 9 9 9 9 9 8 8 7 7 7 7 6 6
8 8 8 8 8 8 9 9 9 9 9 9 9 9 9 10 9 9 10 10 10 10 10 10 9 9 9 9 9 9 9 9 9 9 8 8 8 7 7 7 6 6 6
7 8 8 8 8 8 8 8 8 8 8 8 9 9 9 9 9 9 9 9 9 10 10 9 9 9 9 9 9 9 9 9 9 8 8 8 8 7 7 7 6 6 5
7 7 7 7 7 7 8 8 8 8 8 8 8 8 9 9 9 9 9 9 9 9 9 9 9 9 9 9 9 9 9 9 9 9 8 8 8 7 7 6 6 6 5
7 7 7 7 7 7 7 8 8 8 8 8 8 8 8 9 9 9 9 8 8 8 9 9 9 9 9 9 9 9 9 9 9 8 8 8 8 7 7 6 6 5 5
6 6 6 7 7 7 7 7 7 7 7 8 8 8 8 8 9 9 9 8 8 8 8 8 9 9 9 9 9 9 9 9 8 8 8 8 7 7 7 6 6 5 5
6 6 6 6 6 7 7 7 7 7 7 7 7 8 8 8 8 9 9 8 8 8 8 8 8 9 9 9 9 9 9 9 8 8 8 7 7 7 6 6 5 5 4
5 5 6 6 6 6 6 6 7 7 7 7 7 7 7 8 8 8 8 8 8 8 8 8 8 8 8 9 8 8 8 8 8 8 7 7 7 6 6 6 5 4 4
5 5 5 5 6 6 6 6 6 6 7 7 7 7 7 8 8 8 8 8 8 8 8 8 8 8 8 8 8 8 8 8 8 7 7 7 6 6 6 5 5 4 4
5 5 5 5 5 6 6 6 6 6 6 6 7 7 7 7 7 8 8 8 8 8 8 8 8 8 8 8 8 8 8 7 7 7 7 6 6 6 5 5 4 4 3
4 4 5 5 5 5 6 6 6 6 6 6 7 7 7 7 7 7 7 8 8 8 8 8 8 8 8 8 8 7 7 7 7 7 6 6 6 5 5 4 4 3 3
4 4 4 5 5 5 5 6 6 6 6 6 6 7 7 7 7 7 7 7 8 8 8 8 8 8 8 7 7 7 7 6 6 6 6 5 5 5 4 4 3 3 2
4 4 4 5 5 5 5 5 5 5 6 6 6 6 7 7 7 7 7 7 8 8 8 8 8 7 7 7 7 7 6 6 6 6 5 5 5 4 4 3 3 3 2
3 4 4 4 5 5 5 5 5 5 6 6 6 6 7 7 7 7 7 7 8 8 8 8 7 7 7 7 7 7 6 6 5 5 5 4 4 4 3 3 3 2 2
3 3 4 4 5 5 5 5 5 5 5 6 6 6 6 6 7 7 7 7 8 8 7 8 8 7 7 7 7 6 6 5 5 5 4 4 3 3 3 2 2 2 1
3 3 4 4 5 5 5 5 5 5 5 5 6 6 6 6 6 6 7 7 7 7 8 8 8 7 7 7 7 6 6 6 5 5 4 3 3 2 2 2 2 1 1
3 3 3 4 4 5 5 5 5 5 5 5 6 6 6 6 6 6 7 7 7 7 7 7 7 7 7 7 7 6 6 6 5 4 4 3 3 2 2 1 1 1 0
3 3 3 4 4 5 5 5 5 5 5 5 5 5 6 6 6 6 6 6 7 7 7 7 7 7 7 7 6 6 5 5 4 4 3 3 2 2 1 1 1 0 0
2 3 3 4 4 4 5 5 5 5 5 5 5 5 5 6 6 6 6 6 6 6 6 6 6 6 6 6 6 5 5 5 5 4 3 3 2 1 1 0 0 0 -0

GEFSMA_850_meantemp_186.txt.gz
Temperature
12 12 12 12 13 13 13 13 13 13 13 13 13 13 13 13 13 13 13 13 13 13 13 12 12 12 12 12 11 11 11 11 11 10 10 10 10 10 10 9 9 9 9
12 12 12 12 12 12 12 12 12 12 12 12 12 12 13 13 13 13 13 13 13 13 12 12 12 12 12 12 11 11 11 11 10 10 10 10 10 10 9 9 9 9 9
11 11 11 11 11 11 11 12 12 12 12 12 12 12 12 12 13 13 12 12 12 12 12 12 12 12 12 12 11 11 11 10 10 10 10 10 10 10 9 9 9 9 8
10 10 11 11 11 11 11 11 11 11 11 12 12 12 12 12 12 12 12 12 12 12 12 12 12 12 12 11 11 11 11 10 10 10 10 10 10 9 9 9 9 9 8
10 10 10 10 10 10 10 10 10 10 11 11 11 11 11 12 12 12 12 12 12 12 12 12 11 12 11 11 11 11 11 10 10 10 10 10 10 9 9 9 9 8 8
9 9 9 9 9 9 9 9 10 10 10 10 10 11 11 11 11 11 11 11 12 11 11 11 11 11 11 11 11 11 11 10 10 10 10 10 9 9 9 9 8 8 8
9 8 8 8 8 8 9 9 9 9 9 9 9 10 10 10 11 11 11 11 11 11 11 11 11 11 11 11 11 11 11 10 10 10 9 9 9 9 9 9 8 8 8
8 8 8 8 8 8 8 8 8 8 9 9 9 9 9 9 10 10 10 10 11 11 11 11 11 11 11 11 11 11 10 10 10 10 9 9 9 9 9 8 8 8 7
8 8 7 7 7 7 7 8 7 8 8 8 8 8 8 9 9 9 10 10 10 10 10 10 10 10 10 10 11 10 10 10 10 10 9 9 9 8 8 8 8 8 7
7 7 7 7 7 7 7 7 7 7 7 8 8 8 8 8 8 9 9 9 10 10 10 10 10 10 10 10 10 10 10 10 10 9 9 9 9 8 8 8 8 7 7
7 7 7 7 6 6 6 7 7 7 7 7 7 7 8 8 8 8 8 9 9 9 9 9 10 10 10 10 10 10 10 10 10 9 9 9 9 8 8 8 7 7 7
6 6 6 6 6 6 6 6 6 6 7 7 7 7 7 7 8 8 8 8 8 9 9 9 9 9 9 9 9 9 9 9 9 9 9 9 9 8 8 8 7 7 6
6 6 6 6 6 6 6 6 6 6 6 6 7 7 7 7 7 8 8 8 8 8 8 8 9 9 9 9 9 9 9 9 9 9 9 9 8 8 8 8 7 7 6
6 6 6 5 5 5 5 5 5 5 6 6 6 7 7 7 7 7 8 8 7 7 8 8 8 8 9 8 8 8 9 9 9 9 8 8 8 8 8 7 7 7 6
5 5 5 5 5 5 5 5 5 5 5 6 6 6 6 7 7 7 7 7 7 7 7 7 8 8 8 8 8 8 8 8 8 8 8 8 8 8 7 7 7 6 6
5 5 5 5 5 5 4 4 5 5 5 5 6 6 6 6 7 7 7 7 7 7 7 7 7 8 8 8 8 8 8 8 8 8 8 8 7 7 7 6 6 6 5
4 4 4 4 4 4 4 4 4 5 5 5 5 6 6 6 6 6 7 7 7 7 7 7 7 7 7 7 7 7 7 7 7 7 7 7 7 7 6 6 6 5 5
4 4 4 4 4 4 4 4 4 4 4 5 5 5 6 6 6 6 6 6 7 7 7 7 6 7 7 7 7 7 7 7 7 7 7 7 6 6 6 5 5 5 4
4 4 3 3 3 3 3 4 4 4 4 5 5 5 5 5 5 6 6 6 6 7 7 7 6 6 6 6 6 6 6 6 6 6 6 6 6 6 5 5 5 4 4
3 3 3 3 3 3 3 3 4 4 4 4 5 5 5 5 5 5 5 6 6 6 6 6 6 6 6 6 6 6 6 6 6 6 6 6 5 5 5 5 4 4 3
3 3 3 3 3 3 3 3 3 4 4 4 4 5 5 5 5 5 5 6 6 6 6 6 5 5 5 5 6 6 6 6 5 5 5 5 5 5 5 4 4 3 3
2 2 2 2 2 3 3 3 3 4 4 4 4 5 5 5 5 5 5 6 6 6 6 6 5 5 6 6 6 5 5 5 5 5 5 5 5 4 4 4 3 3 3
2 2 2 2 2 3 3 3 3 4 4 4 4 4 4 5 5 5 5 5 6 6 6 6 6 6 6 6 6 6 5 5 5 5 5 4 4 4 4 3 3 2 2
1 1 1 1 2 2 3 3 3 4 4 4 4 4 4 4 4 5 5 5 5 5 6 6 6 6 6 6 6 6 5 5 5 4 4 4 4 3 3 2 2 2 1
1 1 1 1 2 2 3 3 3 3 3 4 4 4 4 4 4 4 4 5 5 5 5 5 5 5 5 5 5 5 5 5 4 4 4 4 3 3 2 2 2 1 1
1 1 1 1 1 2 2 3 3 3 3 4 4 4 4 4 4 4 4 4 4 5 5 5 5 5 5 5 5 5 5 5 4 4 3 3 3 3 2 1 1 1 0

GEFSMA_850_meantemp_192.txt.gz
Temperature
12 12 12 12 12 12 12 13 13 13 13 13 13 13 13 13 13 13 13 13 13 13 13 13 13 13 13 12 12 12 12 12 12 11 11 11 11 11 11 11 10 10 10
12 12 12 12 12 12 12 12 12 12 12 12 12 12 12 12 12 12 12 12 12 12 12 12 12 12 12 12 12 12 12 12 12 11 11 11 11 11 11 10 10 10 9
11 11 11 11 11 11 11 11 11 11 11 11 11 12 12 12 12 12 12 12 12 12 12 12 12 12 12 12 12 12 12 12 11 11 11 11 11 11 11 10 10 10 9
10 10 10 10 10 10 10 10 10 10 11 11 11 11 11 11 12 12 12 12 12 12 12 12 12 12 12 12 12 12 12 11 11 11 11 11 11 11 10 10 10 10 9
9 9 9 9 9 9 9 9 9 9 10 10 10 10 10 10 11 11 11 11 12 12 12 12 12 12 12 12 12 11 11 11 11 11 11 11 11 10 10 10 10 10 9
9 9 9 9 9 9 9 9 8 8 9 9 9 9 10 10 10 10 11 11 11 11 11 11 11 11 11 11 11 11 11 11 11 11 11 11 10 10 10 10 9 9 9
8 8 8 8 8 8 8 8 8 8 8 8 8 8 9 9 10 10 10 10 10 11 11 11 11 11 11 11 11 11 11 11 10 10 10 10 10 10 10 9 9 9 9
8 8 8 8 8 8 7 7 7 7 7 7 7 6 7 8 9 9 9 10 10 10 10 10 10 11 11 11 11 11 11 10 10 10 10 10 10 10 10 9 9 9 9
8 7 7 7 7 7 7 7 7 6 6 6 6 6 6 6 7 8 9 9 9 9 10 10 10 10 10 10 11 10 10 10 10 10 10 10 10 10 9 9 9 8 8
7 7 7 7 7 7 7 7 6 6 6 6 6 6 6 6 6 6 7 8 8 9 9 9 9 10 10 10 10 10 10 10 10 10 9 9 9 9 9 9 8 8 8
7 7 7 6 6 6 6 6 6 6 6 5 5 5 5 5 5 5 6 7 8 8 8 9 9 9 9 9 10 10 10 10 9 9 9 9 9 9 9 8 8 8 8
6 6 6 6 6 6 6 6 6 6 5 5 5 5 5 5 5 5 5 6 6 7 8 8 8 9 9 9 9 9 9 9 9 9 9 9 9 9 8 8 8 8 8
6 6 6 6 6 5 5 5 5 5 5 5 5 5 5 5 5 5 5 5 5 6 7 7 8 8 8 8 9 9 9 9 9 9 9 8 8 8 8 8 8 7 7
5 5 5 5 5 5 5 5 5 5 5 5 4 5 5 5 5 5 5 5 5 5 6 7 7 8 8 8 8 8 8 8 8 8 8 8 8 8 8 7 7 7 7
5 5 5 5 5 5 5 4 4 4 4 4 4 4 4 4 4 5 5 5 5 5 5 6 7 7 7 8 8 8 8 8 8 8 8 8 8 8 7 7 7 7 7
5 4 4 4 4 4 4 4 4 4 4 4 4 4 4 4 4 4 4 5 5 5 5 6 6 7 7 7 7 7 7 7 7 7 7 7 7 7 7 7 7 7 6
4 4 4 4 4 4 4 4 4 3 3 3 3 3 3 4 4 4 4 4 5 5 5 6 6 6 6 6 7 7 7 7 7 7 7 7 7 7 7 6 6 6 6
4 4 4 4 4 4 4 3 3 3 3 3 3 3 3 3 4 4 4 4 4 5 5 5 6 6 6 6 6 6 6 6 6 6 6 6 6 6 6 6 6 6 5
3 3 3 3 3 3 3 3 3 3 3 3 3 3 3 3 3 4 4 4 4 5 5 5 5 6 5 5 5 6 6 6 6 6 6 6 6 5 6 5 5 5 5
3 3 3 3 3 3 3 3 2 2 2 3 3 3 3 3 3 4 4 4 4 4 5 5 5 5 5 5 5 5 5 5 5 5 5 5 5 5 5 5 5 5 4
3 2 2 3 2 2 2 2 2 2 2 2 3 3 3 3 3 3 3 4 4 4 5 5 5 5 5 5 5 5 4 4 5 4 5 5 5 5 4 4 4 4 4
2 2 2 2 2 2 2 2 2 2 2 2 2 3 3 3 3 3 3 4 4 4 4 4 4 4 4 5 4 4 4 4 4 4 4 4 4 4 4 4 4 3 3
2 2 2 2 2 2 2 2 2 2 2 2 2 2 3 3 3 3 3 3 4 4 4 4 4 4 4 5 4 4 4 4 4 3 3 3 3 3 3 3 3 3 3
1 1 1 1 1 2 1 2 2 2 2 2 2 2 2 3 3 3 3 3 4 4 4 4 4 5 5 4 4 4 4 4 3 3 3 3 3 3 3 2 2 2 2
1 1 1 1 1 1 2 2 2 2 2 2 2 2 2 2 3 3 3 3 3 4 4 4 4 4 4 4 4 4 3 3 2 2 3 2 3 2 2 2 2 2 2
0 0 0 1 1 1 1 1 1 1 2 2 2 2 2 2 3 3 3 3 3 3 3 3 4 4 4 3 4 3 3 3 3 2 2 2 2 2 1 2 1 1 1

GEFSMA_850_meantemp_198.txt.gz
Temperature
12 12 12 12 12 12 12 12 12 12 12 12 12 12 12 12 12 12 12 12 12 12 12 12 12 12 12 12 12 12 12 12 12 12 12 12 12 11 11 11 11 10 10
11 11 11 11 11 11 11 11 11 11 11 11 12 12 12 12 12 12 12 12 12 12 12 12 12 12 12 12 12 12 12 12 12 12 12 12 11 11 11 11 11 10 10
11 11 11 11 11 11 10 10 10 11 11 11 11 11 11 11 11 11 11 11 11 11 11 11 11 11 11 12 12 12 12 12 12 12 12 12 11 11 11 11 11 10 10
10 10 10 10 10 10 10 10 10 10 10 10 10 10 10 10 10 10 10 11 11 11 11 11 11 11 11 11 11 11 11 11 12 12 12 11 11 11 11 11 10 10 10
10 10 9 9 9 9 9 9 9 9 9 9 9 9 10 10 10 10 10 10 10 10 10 10 10 10 11 11 11 11 11 11 11 11 11 11 11 11 11 11 10 10 10
9 9 9 9 9 8 8 8 8 8 8 8 8 8 9 9 9 9 9 9 9 10 10 10 10 10 10 10 10 11 11 11 11 11 11 11 11 11 10 10 10 10 10
9 8 8 8 8 8 8 7 7 7 8 7 7 7 8 8 8 9 9 9 9 9 9 9 9 9 9 10 10 10 10 10 10 10 10 10 10 10 10 10 10 10 10
8 8 8 8 7 7 7 7 7 7 7 7 6 6 6 6 7 7 8 8 8 8 8 8 9 9 9 9 9 9 10 10 10 10 10 10 10 10 10 10 10 9 9
8 7 7 7 7 7 6 6 6 6 6 6 6 5 5 5 5 6 7 7 7 7 7 8 8 8 8 8 9 9 9 9 9 10 10 10 10 10 9 9 9 9 9
7 7 7 7 6 6 6 6 6 6 5 5 5 5 5 5 4 4 5 6 6 7 7 7 7 7 8 8 8 8 9 9 9 9 9 9 9 9 9 9 9 9 9
7 6 6 6 6 6 6 5 5 5 5 5 5 4 4 4 4 4 4 5 5 6 6 6 6 7 7 7 7 8 8 8 8 9 9 9 9 9 9 9 9 9 8
6 6 6 6 5 5 5 5 5 5 5 5 4 4 4 4 4 4 3 4 4 5 5 6 6 6 6 7 7 7 7 8 8 8 8 8 8 8 8 8 8 8 8
6 6 5 5 5 5 5 5 5 5 4 4 4 4 4 4 3 3 3 3 3 4 4 5 6 6 6 6 6 7 7 7 7 8 8 8 8 8 8 8 8 8 8
5 5 5 5 5 5 4 4 4 4 4 4 4 4 3 3 3 3 3 3 2 3 3 4 5 5 6 6 6 6 7 7 7 7 7 8 8 8 8 8 8 8 7
5 5 5 4 4 4 4 4 4 4 4 4 4 4 3 3 3 3 3 3 2 2 3 4 4 5 5 6 6 6 6 7 7 7 7 7 7 7 7 7 7 7 7
5 5 4 4 4 4 4 4 4 4 3 4 3 3 3 3 3 2 3 3 3 2 2 3 4 4 5 5 5 5 6 6 7 7 7 7 7 7 7 7 7 7 6
4 4 4 4 4 4 3 3 3 3 3 3 3 3 3 3 2 2 2 2 2 2 2 3 3 4 4 5 5 5 5 6 6 6 6 7 7 6 6 6 6 6 6
4 4 4 4 4 3 3 3 3 3 3 3 3 3 3 2 2 2 2 2 2 2 2 2 3 3 4 4 5 5 5 5 6 6 6 6 6 6 6 6 6 6 5
4 4 3 3 3 3 3 3 2 2 2 2 2 2 2 2 2 2 2 2 2 2 2 2 3 3 3 4 4 5 5 5 5 5 5 6 6 5 6 5 5 5 5
3 3 3 3 3 2 2 2 2 2 2 2 2 2 2 2 2 2 2 2 2 2 2 2 2 3 3 4 4 4 4 5 5 5 5 5 5 5 5 5 5 5 4
3 2 2 2 2 2 2 2 2 2 2 2 2 2 2 2 2 2 2 2 2 2 2 2 2 3 3 3 3 4 4 4 4 4 4 4 4 4 4 4 4 4 4
2 2 2 1 2 2 2 2 1 1 1 2 2 2 2 2 2 2 2 2 2 2 2 2 2 3 3 3 3 3 3 3 3 3 3 3 4 4 4 4 4 4 3
1 1 1 1 1 1 1 1 1 1 1 1 1 2 2 2 2 2 2 2 2 2 2 2 2 3 3 3 3 3 3 3 3 3 3 3 3 3 3 3 3 3 3
1 0 1 1 1 1 1 1 1 1 1 1 1 1 1 1 2 1 1 1 2 2 2 2 2 3 3 3 3 3 3 3 3 3 3 2 2 2 2 2 2 2 2
0 -0 -0 0 0 0 1 1 1 1 1 1 1 1 1 1 1 1 1 1 2 2 2 2 2 2 2 3 3 3 3 2 2 2 2 2 2 2 2 2 2 2 2
-1 -1 -1 -0 -0 0 0 0 0 0 1 1 1 1 1 1 1 1 1 1 1 2 2 2 2 2 2 2 2 2 3 2 2 1 2 2 1 1 1 1 1 1 1

GEFSMA_850_meantemp_204.txt.gz
Temperature
12 12 12 12 12 12 12 12 12 12 12 12 12 12 12 12 12 11 12 12 12 12 12 12 12 12 12 12 12 12 12 12 12 12 12 12 12 12 12 12 12 12 12
12 11 11 11 11 11 11 11 11 11 11 11 11 11 11 11 11 11 11 11 11 11 11 11 11 11 11 11 11 11 11 11 12 12 12 12 12 12 12 12 12 12 12
11 11 11 11 10 10 10 10 10 10 10 10 10 10 10 10 10 10 10 10 10 11 11 11 11 11 11 11 11 11 11 11 11 11 11 11 11 11 12 11 11 11 11
10 10 10 10 10 10 10 10 9 9 9 9 9 9 9 10 10 10 10 10 10 10 10 10 10 10 10 10 10 10 10 10 11 11 11 11 11 11 11 11 11 11 11
10 10 10 9 9 9 9 9 8 8 8 8 8 8 8 9 9 9 9 9 9 9 9 9 9 9 9 9 10 10 10 10 10 10 10 10 10 11 11 11 11 11 11
9 9 9 9 9 8 8 8 8 8 8 7 7 7 8 8 8 8 8 8 8 8 8 8 8 8 9 9 9 9 9 9 9 9 10 10 10 10 10 10 10 10 10
9 9 9 8 8 8 8 7 7 7 7 7 7 7 7 7 7 7 7 7 7 8 8 8 8 8 8 8 8 8 8 9 9 9 9 9 9 10 10 10 10 10 10
8 8 8 8 8 7 7 7 7 7 6 6 6 6 6 7 7 7 7 7 7 7 7 7 7 7 7 7 7 8 8 8 8 8 8 9 9 9 9 9 9 9 10
8 8 8 8 7 7 7 7 6 6 6 6 5 5 5 6 6 6 6 6 6 6 6 6 6 6 6 6 7 7 7 7 8 8 8 8 8 8 9 9 9 9 9
8 7 7 7 7 7 6 6 6 6 5 5 5 5 5 5 5 5 5 6 6 6 6 6 6 6 6 6 6 6 7 7 7 7 7 7 8 8 8 8 8 9 9
7 7 7 7 6 6 6 6 6 5 5 5 4 4 4 4 4 4 5 5 5 5 5 5 5 5 5 5 6 6 6 6 6 6 7 7 7 7 7 8 8 8 8
7 7 6 6 6 6 5 5 5 5 5 4 4 4 4 4 4 4 4 4 4 5 5 4 4 5 5 5 5 5 6 6 6 6 6 6 6 7 7 7 7 8 8
6 6 6 5 5 5 5 5 5 4 4 4 4 4 4 3 3 3 3 3 3 4 4 4 4 4 4 4 4 5 5 5 5 6 6 6 6 6 7 7 7 7 7
6 5 5 5 5 5 4 4 4 4 4 3 3 3 3 3 3 3 3 3 3 3 4 4 4 4 4 4 4 4 4 5 5 5 5 6 6 6 6 7 7 7 7
5 5 5 5 5 4 4 4 4 3 3 3 3 3 3 3 3 3 3 2 2 2 3 3 4 4 3 3 4 4 4 4 5 5 5 5 6 6 6 6 6 6 7
5 5 5 4 4 4 4 3 3 3 3 3 3 3 3 3 3 3 2 2 2 2 2 3 3 3 3 3 3 3 4 4 4 5 5 5 5 6 6 6 6 6 6
5 4 4 4 4 4 3 3 3 3 3 3 2 2 2 2 2 2 2 2 2 2 2 2 2 3 3 3 3 3 3 4 4 5 5 5 5 5 6 5 6 6 6
4 4 4 4 3 3 3 3 3 3 2 2 2 2 2 2 2 2 2 2 2 1 1 2 2 2 2 2 2 3 3 3 4 4 4 5 5 5 5 5 5 5 6
4 4 3 3 3 3 3 3 2 2 2 2 2 2 2 2 2 2 2 2 1 1 1 1 2 2 2 2 2 2 3 3 3 4 4 4 5 5 5 5 5 5 5
3 3 3 3 3 2 2 2 2 2 2 2 2 2 2 2 2 2 1 1 1 1 1 1 1 2 2 2 2 2 2 3 3 3 4 4 4 4 4 5 5 5 5
3 2 2 2 2 2 2 2 1 1 2 2 2 2 2 2 2 1 1 1 1 1 1 1 1 1 1 1 2 2 2 2 2 3 3 3 3 4 4 4 4 4 4
2 2 2 2 2 2 2 2 1 1 1 1 2 2 2 2 2 2 1 1 1 1 1 1 1 1 1 1 1 1 1 2 2 2 2 2 3 3 3 3 3 3 3
2 1 1 1 1 2 2 1 1 1 1 1 1 1 1 1 1 1 1 1 1 1 1 1 1 1 1 1 1 1 1 2 1 2 2 2 2 2 2 2 2 2 2
1 1 1 1 1 1 1 1 1 1 1 1 1 1 1 1 1 1 1 1 1 1 1 1 1 1 1 1 1 1 1 1 1 2 2 1 2 2 2 2 2 2 2
0 0 0 0 0 1 1 1 0 0 0 1 1 1 1 1 1 1 1 1 1 1 1 1 1 1 1 1 1 1 1 1 1 1 1 1 1 1 1 1 1 1 1
-0 -0 -0 -0 -0 0 0 0 0 -0 -0 0 0 0 0 0 1 1 0 0 0 0 1 1 1 1 1 1 1 1 1 1 1 1 1 1 1 0 0 0 0 1 1

GEFSMA_850_meantemp_210.txt.gz
Temperature
12 12 12 12 12 12 12 12 12 12 12 12 12 12 12 12 12 12 12 12 12 12 11 11 11 11 11 11 11 11 11 11 11 11 12 12 12 12 12 12 12 12 12
12 12 12 12 12 12 11 11 11 11 11 11 11 11 11 11 11 11 11 11 11 11 11 11 11 11 11 11 11 11 11 11 11 11 11 11 11 11 11 11 11 11 11
12 11 11 11 11 11 11 11 11 11 10 10 10 10 10 10 10 10 10 10 10 10 10 10 10 10 10 10 10 10 10 10 10 10 10 10 10 10 11 11 11 11 11
11 11 11 11 11 11 11 10 10 10 10 10 10 10 10 10 10 10 10 10 10 10 10 9 9 9 9 9 9 9 9 9 9 9 9 10 10 10 10 10 10 10 10
11 11 11 10 10 10 10 10 9 9 9 9 9 9 9 9 9 9 9 9 9 9 9 9 9 9 9 9 9 9 8 9 9 9 9 9 9 9 9 9 10 10 10
10 10 10 10 10 10 9 9 9 9 8 8 8 8 8 8 8 8 8 8 8 8 8 8 8 8 8 8 8 8 8 8 8 8 8 8 8 8 8 9 9 9 9
10 10 10 9 9 9 9 9 8 8 8 8 8 7 8 8 8 8 8 8 7 7 8 7 7 7 7 7 7 7 7 7 7 7 7 7 7 7 8 8 8 8 9
9 9 9 9 9 9 9 8 8 8 7 7 7 6 6 6 7 7 7 7 7 7 7 7 7 7 7 7 7 7 6 6 6 6 6 7 7 7 7 7 7 8 8
9 9 8 8 8 8 8 8 7 7 7 7 6 6 5 5 5 6 6 6 6 6 6 6 6 6 6 6 6 6 6 6 6 6 6 6 6 6 6 7 7 7 7
8 8 8 8 8 7 7 7 7 6 6 6 6 5 5 5 5 5 5 5 5 5 6 6 6 6 6 6 6 6 6 5 5 5 5 6 6 6 6 6 6 7 7
8 8 8 7 7 7 7 7 6 6 6 5 5 5 5 5 4 4 4 5 5 5 5 5 5 5 5 5 5 5 5 5 5 5 5 5 5 5 5 6 6 6 6
8 7 7 7 7 6 6 6 6 6 5 5 5 5 4 4 4 4 4 4 4 4 5 5 5 5 5 5 5 5 5 5 5 5 5 4 4 5 5 5 5 6 6
7 7 7 6 6 6 6 6 5 5 5 5 4 4 4 4 4 3 3 3 3 4 4 4 4 4 4 4 4 4 4 4 4 4 4 4 4 4 4 5 5 5 5
6 6 6 6 6 6 5 5 5 5 4 4 4 4 4 4 3 3 3 3 2 3 3 4 4 4 4 4 4 4 4 4 4 4 4 4 4 4 4 5 5 5 5
6 6 6 6 5 5 5 5 4 4 4 4 4 4 3 3 3 3 3 2 2 2 3 3 3 4 3 3 3 3 3 3 3 3 3 4 4 4 4 4 5 5 5
6 5 5 5 5 5 4 4 4 4 4 4 3 3 3 3 3 3 3 2 2 2 2 3 3 3 3 3 3 3 3 3 3 3 3 3 4 4 4 4 4 5 5
5 5 5 4 4 4 4 4 4 3 3 3 3 3 3 3 3 3 2 2 2 2 1 2 2 2 2 2 2 2 2 2 3 3 3 3 3 4 4 4 4 5 5
5 4 4 4 4 4 4 3 3 3 3 3 3 2 2 2 2 2 2 2 2 2 1 1 2 2 2 2 2 2 2 2 2 2 3 3 3 3 4 4 4 5 5
4 4 4 3 3 3 3 3 3 3 2 2 2 2 2 2 2 2 2 2 2 1 1 1 1 2 2 2 2 2 2 2 2 2 2 3 3 3 4 4 4 4 4
4 3 3 3 3 2 2 2 2 2 2 2 2 2 2 2 2 2 2 2 1 1 1 1 1 1 1 1 1 1 2 2 2 2 2 3 3 3 3 4 4 4 4
3 3 2 2 2 2 2 2 2 2 2 2 2 2 2 2 2 2 1 1 1 1 1 1 1 1 1 1 1 1 1 1 2 2 2 2 2 3 3 3 3 3 3
3 2 2 2 2 1 1 1 1 1 1 1 2 2 2 2 2 1 1 1 1 1 1 1 1 1 1 1 1 1 1 1 1 1 1 2 2 2 2 2 3 3 3
2 2 1 1 1 1 1 1 1 1 1 1 1 1 1 1 1 1 1 1 1 1 1 1 1 1 1 1 1 1 1 1 1 1 1 1 2 2 2 2 2 2 2
1 1 1 1 1 1 1 1 1 0 0 1 1 1 1 1 1 1 1 0 0 1 1 1 1 1 1 1 1 1 1 1 1 1 1 1 1 1 2 2 2 2 2
1 1 1 1 1 1 1 0 0 0 0 0 1 1 1 1 1 0 0 0 0 0 1 0 0 0 1 1 1 1 1 1 0 1 1 1 1 1 2 2 1 1 1
0 0 0 0 0 0 0 0 -0 -0 -0 -0 -0 0 0 0 -0 -0 -0 -0 -0 0 0 0 0 0 0 1 1 1 1 0 0 0 1 0 1 1 1 1 1 1 1

GEFSMA_850_meantemp_216.txt.gz
Temperature
13 13 13 13 13 13 12 12 12 12 12 12 12 12 12 12 12 11 11 11 11 11 10 10 10 10 10 10 10 10 10 10 10 10 9 9 10 10 10 10 10 10 11
13 13 13 12 12 12 12 12 12 12 12 12 12 12 11 11 11 11 11 10 10 10 10 9 9 9 9 9 9 9 9 9 9 9 9 9 9 9 9 9 9 10 10
12 12 12 12 12 12 12 11 11 11 11 11 11 11 11 11 11 10 10 10 10 9 9 9 9 9 9 8 8 9 9 8 9 8 8 8 8 8 8 9 9 9 9
12 12 12 12 11 11 11 11 11 11 11 11 11 11 10 10 10 10 9 9 9 9 9 8 8 8 8 8 8 8 8 8 8 8 8 8 8 8 8 8 8 8 8
12 11 11 11 11 11 11 11 11 10 10 10 10 10 10 10 9 9 9 9 8 8 8 8 8 8 7 7 7 7 7 7 7 7 7 7 7 7 7 7 8 8 8
11 11 11 11 10 10 10 10 10 10 10 10 10 9 9 9 9 8 8 8 8 8 7 7 7 7 7 7 7 7 7 7 7 7 7 7 7 7 7 7 7 7 7
10 10 10 10 10 10 10 10 9 9 9 9 9 9 8 8 8 8 7 7 7 7 7 7 7 6 6 6 6 6 6 6 6 6 6 6 6 6 6 6 7 7 7
10 10 10 10 9 9 9 9 9 8 8 8 7 7 7 7 7 7 7 7 6 6 6 6 6 6 6 6 6 6 6 6 5 5 5 5 5 6 6 6 6 6 6
9 9 9 9 9 9 9 8 8 8 7 7 7 6 5 5 5 6 6 6 6 6 6 6 6 5 5 5 5 5 5 5 5 5 5 5 5 5 5 6 6 6 6
9 9 9 8 8 8 8 8 7 7 7 6 6 6 5 5 4 4 5 5 5 5 5 5 5 5 5 5 5 5 5 4 4 4 4 4 4 5 5 5 5 5 5
9 8 8 8 8 7 7 7 7 6 6 6 5 5 5 5 4 3 3 4 5 5 5 5 5 5 4 4 4 4 4 4 4 4 4 4 4 4 4 4 5 5 5
8 8 8 7 7 7 7 6 6 6 6 5 5 5 4 4 4 3 3 3 4 4 4 5 4 4 4 4 4 4 4 4 4 3 3 3 4 4 4 4 4 4 4
8 8 7 7 7 7 6 6 6 6 5 5 5 4 4 4 3 3 3 3 3 3 4 4 4 4 3 4 4 3 3 3 3 3 3 3 3 3 3 3 4 4 4
7 7 7 6 6 6 6 6 5 5 5 4 4 4 4 3 3 3 3 2 2 3 3 3 4 3 3 3 3 3 3 3 3 3 3 3 3 3 3 3 3 4 4
7 6 6 6 6 6 5 5 5 5 4 4 4 4 3 3 3 3 3 2 2 2 2 3 3 3 3 3 3 3 3 3 3 3 3 3 3 3 3 3 3 4 4
6 6 6 5 5 5 5 5 4 4 4 4 3 3 3 3 3 3 2 2 2 2 1 2 2 2 2 2 2 2 2 3 3 3 3 3 3 3 3 3 3 3 3
6 5 5 5 5 5 4 4 4 4 3 3 3 3 3 3 3 2 2 2 2 2 1 2 2 2 2 2 2 2 2 2 2 2 2 2 2 3 3 3 3 3 3
5 5 5 5 4 4 4 3 3 3 3 3 3 3 3 2 2 2 2 2 2 1 1 1 2 2 2 2 2 2 2 2 2 2 2 2 2 2 2 2 3 3 3
5 5 4 4 4 4 3 3 3 3 3 2 2 2 2 2 2 2 2 2 1 1 1 1 1 1 1 1 1 2 2 2 2 2 2 2 2 2 2 2 2 3 3
4 4 4 3 3 3 3 3 2 2 2 2 2 2 2 2 1 1 1 1 1 1 1 1 1 1 1 1 1 1 1 2 2 2 2 2 2 2 2 2 2 2 3
4 3 3 3 3 3 2 2 2 2 1 2 2 1 1 1 1 1 1 1 1 1 1 1 0 0 1 1 1 1 1 1 1 2 2 2 1 1 2 2 2 2 2
3 3 3 2 2 2 2 2 2 1 1 1 1 1 1 1 1 1 1 1 0 0 0 0 0 0 0 0 0 1 1 0 1 1 1 1 1 1 1 2 2 2 2
3 2 2 2 2 2 1 1 1 1 1 1 1 1 1 1 1 1 1 0 0 0 0 -0 -0 -0 -0 -0 -0 0 0 0 0 1 1 1 1 1 1 1 2 2 2
2 2 2 1 1 1 1 1 1 1 0 0 0 0 -0 -0 0 0 0 0 0 0 -0 -0 -0 -0 -0 -0 -0 -0 0 0 0 0 0 0 1 1 1 1 1 1 1
1 1 1 1 1 1 1 1 0 0 0 0 -0 -0 -0 -1 -0 -1 -0 -0 -0 -0 -0 -0 -0 -0 -0 -0 -0 -0 -0 -0 0 0 0 -0 0 0 1 1 1 1 1
1 0 0 0 0 0 0 -0 -0 -0 -0 -0 -0 -0 -1 -1 -1 -1 -1 -1 -1 -1 -1 -0 -0 -0 0 0 0 -0 -0 -0 -0 -0 -0 -0 -0 -0 -0 0 0 0 0

GEFSMA_850_meantemp_222.txt.gz
Temperature
13 13 13 13 13 13 13 12 12 12 12 12 12 12 12 12 11 11 11 11 11 10 10 10 10 10 10 10 10 9 9 9 9 9 9 9 9 9 9 9 9 9 9
13 13 13 13 13 12 12 12 12 12 12 12 12 12 11 11 11 11 10 10 10 10 10 10 9 9 9 9 9 9 9 8 8 8 8 8 8 8 8 8 8 8 8
12 12 12 12 12 12 12 12 12 11 11 11 11 11 11 11 10 10 10 10 9 9 9 9 9 9 8 8 8 8 8 8 8 8 8 8 8 8 8 8 8 8 8
12 12 12 12 12 12 11 11 11 11 11 11 11 11 10 10 10 10 9 9 9 9 9 8 8 8 8 8 7 7 7 7 7 7 7 7 7 7 7 7 7 7 7
12 12 11 11 11 11 11 11 11 11 11 10 10 10 10 10 9 9 9 8 8 8 8 8 8 8 7 7 7 7 7 7 7 7 7 7 7 7 7 7 7 7 7
11 11 11 11 11 11 11 10 10 10 10 10 10 10 9 9 9 9 8 8 8 8 7 7 7 7 7 7 6 6 6 6 6 6 6 6 6 6 6 6 6 6 6
11 10 10 10 10 10 10 10 10 10 10 9 9 9 9 9 8 8 8 7 7 7 7 7 7 6 6 6 6 6 6 6 6 6 6 6 5 5 5 5 6 5 6
10 10 10 10 10 10 10 9 9 9 9 8 8 7 7 7 7 7 7 7 7 7 6 6 6 6 6 6 6 5 5 5 5 5 5 5 5 5 5 5 5 5 5
10 10 10 9 9 9 9 9 8 8 8 7 7 6 6 6 6 6 6 6 6 6 6 6 6 5 5 5 5 5 5 5 4 4 4 4 4 5 5 5 5 5 5
9 9 9 9 9 9 8 8 8 7 7 7 6 6 5 5 4 5 6 6 6 6 5 5 5 5 5 5 4 4 4 4 4 4 4 4 4 4 4 4 4 4 4
9 9 9 8 8 8 8 7 7 7 6 6 6 5 5 5 4 4 4 5 5 5 5 5 5 4 4 4 4 4 4 4 4 4 3 3 4 4 4 4 4 4 4
9 8 8 8 8 7 7 7 6 6 6 6 5 5 5 4 4 3 3 3 4 5 5 4 4 4 4 4 3 3 3 3 3 3 3 3 3 3 3 3 4 4 4
8 8 8 8 7 7 7 6 6 6 5 5 5 4 4 4 3 3 2 2 2 3 4 4 4 4 3 3 3 3 3 3 3 3 3 3 3 3 3 3 3 3 3
8 8 7 7 7 6 6 6 6 5 5 5 4 4 4 4 3 3 2 2 2 2 3 3 3 3 3 3 3 3 3 3 3 3 3 3 3 3 3 3 3 3 3
7 7 7 7 6 6 6 5 5 5 5 4 4 4 4 3 3 3 2 2 1 1 1 2 2 3 2 2 2 2 2 2 2 2 2 2 2 3 3 2 3 3 3
7 7 6 6 6 6 5 5 5 5 4 4 4 3 3 3 3 2 2 2 1 1 1 1 2 2 2 2 2 2 2 2 2 2 2 2 2 2 2 2 2 2 2
6 6 6 6 5 5 5 5 4 4 4 4 3 3 3 3 2 2 2 2 1 1 1 1 1 2 2 2 2 2 2 2 2 2 2 2 2 2 2 2 2 2 2
6 6 5 5 5 4 4 4 4 4 3 3 3 3 3 2 2 2 2 1 1 1 1 1 1 1 1 1 1 2 2 2 2 2 2 2 2 2 2 2 2 2 2
5 5 5 5 4 4 4 3 3 3 3 3 2 2 2 2 2 2 1 1 1 1 0 0 1 1 1 1 1 2 2 2 2 2 2 2 2 2 2 2 2 2 2
5 5 4 4 4 3 3 3 3 2 2 2 2 2 2 1 1 1 1 1 1 1 0 0 0 0 0 1 1 1 1 1 2 2 2 1 1 1 2 2 2 2 2
4 4 4 3 3 3 3 2 2 2 2 2 2 1 1 1 1 1 0 0 0 0 0 -0 -0 -0 0 0 0 0 0 1 1 1 1 1 1 1 1 1 1 2 2
4 3 3 3 3 2 2 2 2 2 1 1 1 1 1 1 1 1 0 0 -0 -0 -0 -1 -0 -1 -0 -0 -0 -0 -0 -0 0 1 0 1 1 1 1 1 1 1 2
3 3 3 3 2 2 2 2 1 1 1 1 1 1 1 1 0 0 0 0 0 -0 -1 -1 -1 -1 -1 -1 -1 -0 -0 -0 -0 -0 0 1 1 1 1 1 1 1 1
2 2 2 2 2 2 1 1 1 1 1 1 1 0 0 0 0 0 0 0 0 -0 -0 -1 -1 -1 -1 -1 -1 -1 -1 -0 0 0 -0 -0 1 1 1 1 1 1 1
2 2 1 1 1 1 1 1 0 0 1 1 0 0 0 -0 -0 -0 -0 -0 -0 -0 -0 -0 -1 -1 -0 -1 -1 -0 -0 -0 -0 0 -0 -1 -0 0 1 1 1 1 1
1 1 1 1 1 0 0 0 -0 -0 0 0 0 0 -0 -0 -0 -1 -1 -1 -1 -1 -1 -0 -0 -0 -0 -0 -0 -1 -1 -1 -1 -1 -1 -1 -1 -1 -1 0 0 0 0

GEFSMA_850_meantemp_228.txt.gz
Temperature
13 13 13 13 13 13 13 12 12 12 12 12 12 12 12 11 11 11 11 11 11 11 10 10 10 10 10 9 9 9 9 9 9 9 9 9 9 9 9 9 9 9 9
13 13 13 13 12 12 12 12 12 12 12 12 12 12 11 11 11 11 10 10 10 10 10 10 10 9 9 9 9 9 9 9 9 8 8 8 8 8 8 8 8 8 8
13 13 12 12 12 12 12 12 12 12 12 11 11 11 11 11 11 10 10 10 9 9 9 9 9 9 8 8 8 8 8 8 8 8 8 8 8 8 7 7 7 7 8
12 12 12 12 12 12 12 11 11 11 11 11 11 11 10 10 10 10 9 9 9 9 9 9 9 8 8 8 8 8 8 8 7 7 7 7 7 7 7 7 7 7 7
12 12 12 12 11 11 11 11 11 11 11 11 10 10 10 10 9 9 9 8 8 8 8 8 8 8 8 8 7 7 7 7 7 7 7 7 6 6 6 6 6 6 6
12 11 11 11 11 11 11 11 11 10 10 10 10 10 9 9 9 8 8 8 8 8 7 7 7 7 7 7 7 7 7 6 6 6 6 6 6 5 5 6 6 6 6
11 11 11 11 11 11 10 10 10 10 10 9 9 8 8 8 8 8 7 7 7 7 7 7 7 6 6 6 6 6 6 6 6 6 5 5 5 5 5 5 5 5 6
11 11 10 10 10 10 10 10 10 9 9 8 7 7 7 7 7 7 7 7 7 7 6 6 6 6 6 6 6 6 6 5 5 5 5 5 5 5 5 5 5 5 5
10 10 10 10 10 10 9 9 9 9 8 8 7 6 6 7 6 7 7 6 6 6 6 6 6 6 5 5 5 5 5 5 5 5 5 4 4 4 4 4 5 5 5
10 10 10 9 9 9 9 9 8 8 7 7 7 6 6 6 5 5 6 6 6 6 5 5 5 5 5 5 5 5 5 5 4 4 4 4 4 4 4 4 4 4 4
9 9 9 9 9 9 8 8 8 7 7 7 6 6 6 5 5 4 5 5 5 5 5 5 5 5 5 4 4 4 4 4 4 3 3 3 4 4 4 4 4 4 4
9 9 9 8 8 8 8 8 7 7 7 6 6 6 5 5 4 4 4 4 4 5 5 4 4 4 4 4 4 4 4 4 3 3 3 3 3 3 3 3 3 4 4
9 9 9 8 8 8 7 7 7 7 6 6 6 5 5 4 4 4 3 3 3 4 4 4 4 3 3 3 3 3 3 3 3 3 3 3 3 3 3 3 3 3 3
9 9 8 8 7 7 7 7 6 6 6 5 5 5 4 4 4 3 3 3 2 3 3 3 3 3 3 3 3 3 3 3 3 3 3 3 3 3 3 3 3 3 3
8 8 8 7 7 7 6 6 6 5 5 5 4 4 4 4 3 3 3 2 2 1 2 3 3 3 3 3 3 3 3 3 3 3 2 2 2 2 2 2 3 3 3
8 8 7 7 7 6 6 6 5 5 5 4 4 4 3 3 3 3 3 2 2 1 1 2 2 2 2 2 2 2 2 2 3 2 2 2 2 2 2 2 3 3 3
7 7 7 7 6 6 5 5 5 4 4 4 4 3 3 3 2 2 2 2 1 1 1 1 2 2 2 2 2 2 2 2 2 2 2 2 2 2 2 2 2 3 3
7 7 6 6 6 5 5 4 4 4 4 3 3 3 3 2 2 2 2 1 1 1 1 1 1 2 2 2 2 2 2 2 2 2 2 2 2 2 2 2 2 2 2
6 6 6 5 5 5 4 4 4 3 3 3 3 2 2 2 2 2 1 1 1 1 1 1 1 1 1 1 1 1 2 1 1 1 1 2 2 1 2 2 2 2 2
6 5 5 5 4 4 4 3 3 3 2 2 2 2 2 2 2 1 1 1 1 1 1 0 0 0 0 1 1 1 1 1 1 1 1 1 1 1 1 1 1 1 2
5 5 5 4 4 3 3 3 2 2 2 2 2 2 2 2 1 1 1 1 1 0 0 0 0 -0 0 0 0 0 0 0 1 1 1 1 1 1 1 1 1 1 1
4 4 4 3 3 3 3 2 2 2 2 2 1 1 1 1 1 1 1 1 0 0 -0 -0 -0 -0 -0 -0 -0 -1 -1 -0 -0 0 0 0 0 0 1 1 1 1 1
4 3 3 3 3 3 2 2 1 1 1 1 1 1 1 1 1 1 0 0 0 0 -0 -1 -1 -1 -1 -1 -1 -1 -1 -1 -1 -0 -0 0 0 0 0 1 1 1 1
3 3 3 2 2 2 2 1 1 1 1 1 1 1 1 0 0 0 0 0 0 -0 -0 -1 -1 -1 -1 -1 -1 -1 -1 -1 -1 -1 -1 -1 -0 -0 0 0 1 1 1
2 2 2 2 2 1 1 1 1 0 0 0 0 0 0 0 -0 -0 -0 -0 -0 -0 -0 -0 -0 -1 -1 -1 -1 -1 -1 -1 -1 -1 -1 -1 -1 -1 -0 -0 0 0 0
2 2 1 1 1 1 1 0 0 -0 0 0 0 -0 -0 -0 -0 -0 -1 -1 -1 -1 -1 -0 -0 -0 -1 -1 -1 -1 -1 -1 -2 -2 -1 -1 -1 -1 -1 -0 -0 -0 -0

GEFSMA_850_meantemp_234.txt.gz
Temperature
14 13 13 13 13 13 13 13 12 12 12 12 12 12 12 12 12 11 11 11 11 10 10 10 10 9 9 9 9 9 9 9 9 9 9 9 9 9 9 8 8 8 8
13 13 13 13 13 13 12 12 12 12 12 12 12 12 12 12 11 11 11 11 10 10 10 9 9 9 9 9 9 9 9 8 8 8 8 8 8 8 8 8 8 7 7
13 13 13 13 12 12 12 12 12 12 12 12 12 12 11 11 11 11 10 10 10 9 9 9 9 8 8 8 8 8 8 8 8 8 8 8 8 7 7 7 7 7 7
13 13 13 12 12 12 12 12 12 12 12 11 11 11 11 11 11 10 10 9 9 9 9 9 8 8 8 8 8 8 7 7 7 7 7 7 7 7 7 6 6 6 6
13 13 12 12 12 12 12 12 11 11 11 11 11 11 11 10 10 10 9 9 9 8 8 8 8 8 7 7 7 7 7 7 7 7 7 7 6 6 6 6 6 6 6
12 12 12 12 12 12 12 11 11 11 11 10 10 10 10 10 10 9 9 8 8 8 8 7 7 7 7 7 7 7 7 6 6 6 6 6 6 6 6 6 6 6 6
12 12 12 12 11 11 11 11 11 11 10 10 10 10 10 9 9 9 8 8 8 7 7 7 7 7 7 6 6 6 6 6 6 6 6 6 5 5 5 5 5 5 5
12 12 11 11 11 11 11 10 10 10 10 9 8 8 8 8 8 8 8 7 7 7 7 6 6 6 6 6 6 6 6 5 5 5 5 5 5 5 5 5 5 5 5
11 11 11 11 11 11 10 10 10 9 9 9 8 7 6 6 6 7 7 7 6 6 6 6 6 6 6 6 5 5 5 5 5 5 5 5 5 4 4 5 5 5 5
11 11 11 10 10 10 10 9 9 9 8 8 8 7 6 6 6 6 6 6 6 6 6 6 6 5 5 5 5 5 5 4 4 4 4 4 4 4 4 4 4 4 4
10 10 10 10 10 10 9 9 9 8 8 8 7 7 6 6 5 5 5 6 6 6 5 5 5 5 5 5 5 4 4 4 4 4 4 4 4 4 4 4 4 4 4
10 10 10 10 9 9 9 8 8 8 8 7 7 6 6 5 5 4 4 5 5 5 5 5 5 5 4 4 4 4 4 4 3 3 3 3 3 3 3 3 3 4 4
10 10 9 9 9 9 8 8 8 7 7 7 6 6 5 5 5 4 4 4 4 4 4 5 4 4 4 4 4 3 3 3 3 3 3 3 3 3 3 3 3 3 3
10 9 9 9 9 8 8 8 7 7 6 6 5 5 5 5 4 4 4 3 3 3 4 4 4 4 3 3 3 3 3 3 3 3 2 3 2 2 2 3 3 3 3
9 9 9 8 8 8 7 7 7 6 6 5 5 5 5 4 4 4 3 3 2 2 2 3 3 3 3 3 3 3 3 3 2 2 2 2 2 2 2 2 2 2 2
9 8 8 8 8 7 7 7 6 6 5 5 5 4 4 4 3 3 3 3 2 2 1 2 2 2 2 2 2 2 2 2 2 2 2 2 2 2 2 2 2 2 2
8 8 8 7 7 7 6 6 6 5 5 5 4 4 3 3 3 3 3 2 2 2 1 2 2 2 2 2 2 2 2 2 2 2 2 2 2 1 2 2 1 2 2
7 7 7 7 6 6 6 6 5 5 4 4 4 3 3 3 3 2 2 2 2 1 1 1 2 2 2 2 2 2 2 2 1 2 1 1 1 1 1 1 1 1 1
7 7 6 6 6 6 5 5 5 4 4 3 3 3 3 2 2 2 2 2 1 1 1 1 1 1 1 1 1 1 1 1 1 1 1 1 1 1 1 1 1 1 1
6 6 6 6 5 5 5 4 4 4 3 3 3 2 2 2 2 2 2 1 1 1 1 1 1 1 1 1 1 1 1 1 1 1 1 1 1 1 0 1 1 1 0
6 5 5 5 5 4 4 3 3 3 3 3 2 2 2 2 2 1 1 1 1 1 1 0 0 0 0 0 -0 -0 -0 0 1 1 1 1 0 0 0 0 0 0 0
5 5 4 4 4 3 3 3 3 2 2 2 2 2 2 2 1 1 1 1 0 0 0 0 -0 -0 -0 -1 -1 -1 -1 -1 -0 -0 -0 0 -0 -0 -0 -0 -0 -0 0
4 4 4 3 3 3 3 2 2 2 2 2 2 1 1 1 1 1 1 0 0 0 -0 -0 -1 -1 -1 -1 -1 -1 -1 -1 -1 -1 -1 -0 -0 -0 -0 -0 -0 -0 -0
3 3 3 3 2 2 2 2 1 1 1 1 1 1 1 1 1 1 0 0 0 0 -0 -0 -1 -1 -1 -1 -1 -1 -1 -1 -1 -1 -1 -1 -1 -1 -1 -1 -1 -1 -1
3 3 2 2 2 2 1 1 1 1 1 1 1 1 0 0 0 0 0 0 0 -0 -0 -1 -1 -1 -1 -1 -2 -2 -2 -2 -2 -1 -2 -2 -2 -1 -1 -1 -1 -1 -1
2 2 2 1 1 1 1 0 0 0 0 0 0 0 0 -0 -0 -0 -0 -0 -0 -0 -0 -1 -1 -1 -1 -1 -1 -2 -2 -2 -3 -3 -2 -3 -3 -3 -2 -1 -1 -1 -1

GEFSMA_850_meantemp_240.txt.gz
Temperature
14 14 14 14 13 13 13 13 13 13 13 13 13 12 12 12 12 12 11 11 11 10 10 9 9 9 9 9 9 9 9 8 8 8 8 8 8 8 8 8 8 8 8
14 14 14 13 13 13 13 13 13 13 12 12 12 12 12 12 11 11 11 10 10 10 10 9 9 9 8 8 8 8 8 8 8 8 8 8 8 7 7 7 7 7 7
14 14 13 13 13 13 13 12 12 12 12 12 12 12 12 11 11 11 10 10 10 9 9 9 9 8 8 8 8 8 7 7 7 7 7 7 7 7 7 7 7 7 7
13 13 13 13 13 12 12 12 12 12 12 12 12 12 11 11 11 10 10 9 9 9 9 9 8 8 8 8 7 7 7 7 7 7 7 7 7 6 6 6 6 6 7
13 13 13 13 12 12 12 12 12 12 12 12 11 11 11 10 10 10 9 9 9 8 8 8 8 8 8 7 7 7 7 7 6 6 6 6 6 6 6 6 6 6 6
13 13 13 12 12 12 12 12 11 11 11 11 11 11 11 10 10 9 9 8 8 8 8 8 7 7 7 7 7 7 6 6 6 6 6 6 6 6 6 6 6 6 6
12 12 12 12 12 12 12 11 11 11 11 10 10 10 10 10 9 9 8 8 8 7 7 7 7 7 7 6 6 6 6 6 5 5 5 5 5 5 5 5 5 5 5
12 12 12 12 12 11 11 11 11 10 10 10 9 9 9 9 9 8 8 8 7 7 7 7 6 6 6 6 6 6 5 5 5 5 5 5 5 5 5 5 5 5 5
12 12 11 11 11 11 11 11 10 10 10 9 9 8 7 7 7 7 7 7 7 6 6 6 6 6 5 5 5 5 5 5 5 4 4 5 4 4 4 4 4 5 5
11 11 11 11 11 11 10 10 10 9 9 9 8 7 7 6 6 6 7 7 6 6 6 5 5 5 5 5 5 5 5 4 4 4 4 4 4 4 4 4 4 4 4
11 11 11 11 10 10 10 9 9 9 9 8 8 7 7 6 6 5 5 6 6 6 5 5 5 5 4 4 4 4 4 4 4 4 4 4 4 4 4 4 4 4 4
10 10 10 10 10 10 9 9 9 8 8 8 7 7 6 5 5 5 5 5 5 5 5 5 4 4 4 4 4 4 3 3 3 3 3 3 3 3 3 3 3 3 3
10 10 10 10 9 9 9 9 8 8 8 7 7 6 6 5 5 5 4 4 4 4 5 4 4 4 3 3 3 3 3 3 3 3 3 3 3 3 3 3 3 3 3
10 10 9 9 9 9 8 8 8 7 7 7 6 6 5 5 5 4 4 3 3 3 3 3 3 3 3 3 3 3 3 3 2 2 2 2 2 2 2 2 2 2 2
9 9 9 9 8 8 8 8 7 7 7 6 6 5 5 4 4 4 3 3 3 2 3 3 3 3 2 2 2 2 2 2 2 2 2 2 2 2 2 2 2 2 2
9 8 8 8 8 8 7 7 7 6 6 6 5 5 4 4 4 3 3 3 2 2 2 2 2 2 2 2 2 2 2 2 2 2 1 1 1 1 1 1 1 1 1
8 8 8 8 7 7 7 7 6 6 5 5 5 4 4 3 3 3 3 3 2 2 1 2 2 2 2 2 2 2 1 1 1 1 1 1 1 1 1 1 1 1 1
7 7 7 7 7 7 6 6 6 5 5 5 4 4 3 3 3 3 3 2 2 2 1 1 2 1 1 1 1 1 1 1 1 1 1 1 1 1 1 1 1 1 1
7 7 6 6 6 6 6 5 5 5 4 4 4 3 3 3 3 3 2 2 2 2 1 1 1 1 1 1 1 1 1 1 1 1 0 0 0 0 0 0 0 0 0
6 6 6 6 6 5 5 5 4 4 4 3 3 3 3 3 2 2 2 2 2 1 1 1 1 1 1 1 1 1 1 1 1 1 0 -0 -0 -0 -0 -0 -0 -0 -0
6 5 5 5 5 5 4 4 4 3 3 3 3 3 3 2 2 2 2 1 1 1 1 0 0 0 0 0 -0 -0 -0 0 0 0 0 0 -0 -0 -0 -0 -0 -0 -0
5 5 5 5 4 4 4 3 3 3 3 2 2 2 2 2 2 2 2 1 1 1 0 0 -0 -0 -0 -1 -1 -1 -1 -1 -1 -0 -0 -0 -0 -1 -1 -1 -1 -1 -1
4 4 4 4 4 3 3 3 2 2 2 2 2 2 2 2 1 1 1 1 1 0 0 -0 -0 -1 -1 -1 -1 -1 -1 -1 -1 -1 -1 -1 -0 -1 -1 -1 -1 -1 -1
4 4 3 3 3 3 2 2 2 2 2 2 1 1 1 1 1 1 1 0 0 0 -0 -0 -1 -1 -1 -1 -1 -2 -2 -2 -1 -1 -2 -2 -1 -1 -1 -1 -1 -1 -1
3 3 3 3 2 2 2 2 1 1 1 1 1 1 1 0 0 0 0 0 0 0 -0 -0 -1 -1 -1 -1 -2 -2 -2 -2 -2 -1 -2 -2 -2 -2 -1 -1 -1 -1 -1
2 2 2 2 2 2 1 1 1 1 1 1 1 0 0 0 0 -0 -0 -0 -0 -0 -0 -0 -0 -1 -1 -1 -1 -2 -2 -2 -3 -3 -2 -3 -3 -3 -2 -2 -1 -1 -1

GEFSMA_850_meantemp_246.txt.gz
Temperature
14 14 14 14 13 13 13 13 13 13 12 12 12 12 12 12 12 11 11 11 11 11 10 10 9 9 9 8 8 8 8 8 8 8 8 8 8 8 7 7 7 8 8
14 14 14 13 13 13 13 13 12 12 12 12 12 12 12 12 11 11 11 11 10 10 10 9 9 9 8 8 8 8 8 8 7 7 7 7 7 7 7 7 7 7 7
13 13 13 13 13 13 12 12 12 12 12 12 12 12 11 11 11 11 10 10 10 10 9 9 9 8 8 8 8 7 7 7 7 7 7 7 7 6 6 7 7 7 7
13 13 13 13 13 12 12 12 12 12 12 12 11 11 11 11 10 10 10 10 9 9 9 9 8 8 8 8 7 7 7 7 7 6 6 6 6 6 6 6 6 6 6
13 13 13 12 12 12 12 12 12 12 11 11 11 11 11 10 10 10 9 9 9 9 8 8 8 8 7 7 7 7 6 6 6 6 6 6 6 6 6 6 6 6 6
12 12 12 12 12 12 12 11 11 11 11 11 11 11 10 10 10 9 9 9 8 8 8 8 7 7 7 7 7 6 6 6 6 5 5 5 5 5 5 5 6 6 6
12 12 12 12 12 12 11 11 11 11 11 10 10 10 10 10 9 9 9 8 8 8 7 7 7 7 6 6 6 6 6 6 5 5 5 5 5 5 5 5 5 5 5
12 12 12 12 11 11 11 11 11 10 10 10 10 9 9 9 9 9 8 8 7 7 7 7 6 6 6 6 6 6 5 5 5 5 5 5 4 4 4 4 5 5 5
11 11 11 11 11 11 11 11 10 10 10 9 9 8 8 8 8 8 8 7 7 7 6 6 6 6 5 5 5 5 5 5 5 4 4 4 4 4 4 4 4 4 4
11 11 11 11 11 10 10 10 10 9 9 9 8 8 7 7 6 6 7 7 7 6 6 5 5 5 5 5 5 4 4 4 4 4 4 4 4 3 3 3 4 4 4
11 11 11 10 10 10 10 9 9 9 9 8 8 8 7 6 6 5 5 6 6 6 5 5 5 5 4 4 4 4 4 4 3 3 3 3 3 3 3 3 3 3 3
10 10 10 10 10 10 9 9 9 8 8 8 7 7 6 6 5 5 4 5 5 5 5 5 4 4 4 4 4 3 3 3 3 3 3 3 3 2 2 3 3 3 3
10 10 10 10 9 9 9 9 8 8 8 7 7 7 6 5 5 5 4 4 4 4 5 5 4 4 4 3 3 3 3 3 3 3 3 2 2 2 2 2 2 2 2
10 10 9 9 9 9 8 8 8 8 7 7 6 6 6 5 5 4 4 4 3 3 4 4 4 4 3 3 3 3 3 3 3 2 2 2 2 2 2 2 2 2 2
9 9 9 9 8 8 8 8 7 7 7 6 6 6 5 5 4 4 3 3 3 2 3 3 3 3 3 3 3 3 3 3 2 2 2 2 2 1 1 1 1 1 1
9 8 8 8 8 7 7 7 7 7 6 6 6 5 5 4 4 3 3 3 2 2 2 2 3 3 3 3 2 2 2 2 2 2 2 2 1 1 1 1 1 1 1
8 8 8 7 7 7 7 7 6 6 6 5 5 5 4 4 4 3 3 3 2 2 2 2 2 2 2 2 3 2 2 2 2 2 2 1 1 1 1 1 1 1 1
8 7 7 7 7 6 6 6 6 5 5 5 4 4 4 4 3 3 3 3 2 2 2 2 2 2 2 2 2 2 2 2 2 2 1 1 1 1 0 0 0 0 0
7 7 6 6 6 6 6 5 5 5 4 4 4 4 3 3 3 3 2 2 2 2 2 2 2 2 2 2 2 2 2 2 1 1 1 0 0 0 0 0 0 0 -0
6 6 6 6 5 5 5 5 4 4 4 3 3 3 3 3 3 2 2 2 2 2 2 1 1 1 1 1 1 1 1 1 1 1 1 0 0 0 0 -0 -0 -0 -1
5 5 5 5 5 5 4 4 4 3 3 3 3 3 3 2 2 2 2 2 2 2 1 1 1 1 1 1 0 -0 -0 0 1 1 1 1 0 0 -0 -0 -0 -1 -1
5 4 4 4 4 4 4 3 3 3 3 3 2 2 2 2 2 2 2 2 1 1 1 1 0 0 0 -0 -1 -1 -1 -1 -1 -0 -0 0 0 -0 -0 -0 -1 -1 -1
4 4 4 4 4 4 3 3 2 2 2 2 2 2 2 2 1 1 1 1 1 1 1 0 0 -0 -0 -1 -1 -1 -1 -2 -1 -1 -1 -0 0 -0 -1 -1 -1 -1 -1
3 3 3 3 3 3 3 2 2 2 2 2 2 1 1 1 1 1 1 1 1 1 1 0 -0 -0 -1 -1 -2 -2 -2 -2 -1 -1 -1 -1 -1 -1 -1 -1 -1 -1 -1
3 3 2 2 2 2 2 2 2 2 1 1 1 1 1 1 1 1 1 1 1 1 0 0 -0 -1 -1 -1 -1 -2 -2 -2 -2 -1 -2 -2 -2 -2 -1 -1 -1 -1 -1
2 2 2 2 1 1 1 1 1 1 1 1 1 1 0 0 0 0 0 0 0 0 0 0 -0 -0 -1 -1 -1 -2 -2 -2 -3 -3 -2 -2 -2 -3 -2 -1 -1 -1 -2

GEFSMA_850_meantemp_252.txt.gz
Temperature
14 13 13 13 13 13 13 13 13 13 13 12 12 12 12 12 12 11 11 11 11 11 10 10 9 9 9 9 9 9 9 8 8 8 8 8 8 7 7 7 7 7 8
13 13 13 13 13 13 13 13 12 12 12 12 12 12 12 12 11 11 11 10 10 10 10 10 9 9 9 8 8 8 8 8 8 8 8 7 7 7 7 7 7 7 7
13 13 13 13 13 12 12 12 12 12 12 12 12 12 11 11 11 11 10 10 10 10 10 9 9 9 9 8 8 8 8 7 7 7 7 7 7 7 6 6 6 7 6
13 13 13 13 12 12 12 12 12 12 12 11 11 11 11 11 10 10 10 10 9 9 9 9 9 9 8 8 8 7 7 7 7 7 7 6 6 6 6 6 6 6 6
13 13 12 12 12 12 12 12 12 11 11 11 11 11 11 10 10 10 9 9 9 9 9 8 8 8 8 8 7 7 7 6 6 6 6 6 6 6 6 6 6 6 6
12 12 12 12 12 12 11 11 11 11 11 11 11 11 10 10 10 9 9 9 8 8 8 8 8 8 7 7 7 7 6 6 6 6 6 6 6 5 5 5 5 5 5
12 12 12 12 12 11 11 11 11 11 11 10 10 10 10 10 9 9 9 8 8 8 8 7 7 7 7 7 6 6 6 6 6 6 6 6 5 5 5 5 5 5 5
11 11 11 11 11 11 11 11 11 10 10 10 9 9 8 8 8 9 8 8 7 7 7 7 7 6 6 6 6 6 6 5 5 5 5 5 5 5 5 4 4 4 4
11 11 11 11 11 11 11 11 10 10 10 9 9 8 8 8 7 8 8 7 7 7 7 6 6 6 6 5 5 5 5 5 5 5 5 5 5 4 4 4 4 4 4
11 11 11 11 10 10 10 10 10 10 9 9 9 8 8 7 6 6 7 7 6 6 6 6 6 6 5 5 5 5 5 5 5 4 4 4 4 4 4 4 4 4 4
10 10 10 10 10 10 10 10 9 9 9 8 8 8 7 7 6 5 5 6 6 6 6 6 5 5 5 4 4 4 4 4 4 4 4 4 4 4 3 4 3 3 3
10 10 10 10 10 10 10 9 9 9 8 8 8 7 7 6 6 5 5 5 5 5 5 5 5 5 4 4 4 4 4 4 4 4 4 3 3 3 3 3 3 3 3
10 10 9 10 9 9 9 9 8 8 8 8 7 7 6 6 5 5 4 4 4 5 5 5 5 4 4 4 4 4 4 4 4 3 3 3 3 3 3 3 3 3 2
9 9 9 9 9 9 8 8 8 8 7 7 7 6 6 5 5 5 4 4 3 3 4 4 4 4 4 4 4 4 3 3 3 3 3 3 3 3 2 2 2 2 2
9 9 9 9 8 8 8 8 7 7 7 7 6 6 5 5 5 4 4 3 3 2 3 3 3 4 3 3 3 3 3 3 3 3 3 2 2 2 2 2 2 2 1
8 8 8 8 8 8 8 7 7 7 6 6 6 5 5 5 4 4 4 3 3 2 2 3 3 3 3 3 3 3 3 3 3 2 2 2 2 2 2 1 1 1 1
8 8 8 8 7 7 7 6 6 6 6 5 5 5 5 4 4 4 3 3 3 2 2 3 3 3 3 3 3 3 2 2 2 2 2 1 1 1 1 1 1 1 1
8 7 7 7 7 6 6 6 6 5 5 5 5 4 4 4 4 3 3 3 3 2 2 2 3 3 3 2 2 2 2 2 2 2 2 1 1 1 1 1 1 1 1
7 7 7 6 6 6 6 5 5 5 4 4 4 4 4 4 3 3 3 3 3 2 2 2 2 2 2 2 2 2 2 2 1 1 1 1 1 1 1 1 1 0 0
6 6 6 6 6 5 5 5 4 4 4 4 3 3 3 3 3 3 2 2 2 2 2 2 2 2 2 1 1 1 1 1 1 1 1 1 1 1 1 0 0 -0 -0
5 5 5 5 5 5 4 4 4 3 3 3 3 3 3 3 3 2 2 2 2 2 2 1 1 1 1 1 0 0 0 0 1 1 1 0 0 0 0 -0 -0 -0 -0
5 5 5 4 4 4 4 4 3 3 3 2 2 2 2 2 2 2 2 2 2 1 1 1 1 0 0 0 -0 -0 -1 -1 -1 0 -0 0 -0 -0 -0 -0 -1 -1 -1
4 4 4 4 4 3 3 3 3 2 2 2 2 2 2 2 2 2 2 2 1 1 1 1 0 0 -0 -0 -0 -1 -1 -1 -1 -1 -1 -1 -0 -1 -0 -0 -1 -1 -1
3 3 3 3 3 3 3 2 2 2 2 2 2 2 1 1 1 1 1 1 1 1 1 0 0 -0 -0 -0 -1 -1 -1 -1 -1 -1 -1 -1 -1 -1 -1 -1 -1 -1 -1
2 2 2 2 2 2 2 2 2 1 2 2 1 1 1 1 1 1 1 1 1 1 1 0 0 -0 -0 -0 -1 -1 -1 -2 -2 -2 -2 -2 -2 -2 -1 -1 -1 -1 -1
2 2 2 2 2 2 1 1 1 1 1 1 1 1 1 1 1 0 0 0 0 0 0 0 0 -0 -0 -1 -1 -1 -2 -2 -3 -3 -2 -3 -3 -3 -2 -1 -1 -1 -1

GEFSMA_850_meantemp_258.txt.gz
Temperature
13 13 13 13 13 13 13 13 13 12 12 12 12 12 12 12 12 12 11 11 11 11 10 10 9 9 9 9 9 9 8 8 8 8 8 8 8 8 7 7 7 7 8
13 13 13 13 13 13 13 12 12 12 12 12 12 12 11 11 11 11 11 11 11 10 10 10 9 9 9 8 8 8 8 8 7 7 8 7 7 7 7 7 7 7 7
13 13 13 12 12 12 12 12 12 12 12 12 12 11 11 11 11 11 11 10 10 10 10 9 9 9 8 8 8 7 7 7 7 7 7 7 7 7 7 7 7 7 7
13 13 12 12 12 12 12 12 12 11 11 11 11 11 11 11 11 10 10 10 10 10 9 9 9 8 8 8 7 7 7 7 7 7 7 7 7 7 6 6 6 6 6
12 12 12 12 12 12 12 12 11 11 11 11 11 11 11 11 10 10 10 10 9 9 9 9 8 8 8 7 7 7 7 6 6 6 6 7 6 6 6 6 6 6 6
12 12 12 12 12 12 12 11 11 11 11 11 11 11 10 10 10 10 9 9 9 9 8 8 8 8 8 7 7 7 6 6 6 6 6 6 6 6 6 6 6 6 6
12 12 12 12 12 12 11 11 11 11 11 11 10 10 10 10 9 9 9 9 8 8 8 8 8 7 7 7 7 6 6 6 6 6 6 6 6 6 6 6 6 5 5
12 12 12 12 11 11 11 11 11 11 10 10 10 9 9 9 9 9 8 8 8 8 7 7 7 7 7 7 6 6 6 6 5 5 5 5 5 5 5 5 5 5 5
11 11 11 11 11 11 11 11 11 10 10 10 9 9 8 8 8 8 8 8 7 7 7 7 7 7 6 6 6 6 5 5 5 5 5 5 5 5 5 5 5 5 5
11 11 11 11 11 11 11 10 10 10 10 9 9 8 8 7 7 7 7 7 7 7 7 7 6 6 6 6 6 5 5 5 5 5 5 4 4 4 4 4 4 4 4
10 10 10 10 10 10 10 10 10 9 9 9 8 8 8 7 7 6 6 7 7 7 6 6 6 6 5 5 5 5 5 5 4 4 4 4 4 4 4 4 4 4 4
10 10 10 10 10 10 10 10 9 9 9 8 8 7 7 7 6 6 5 6 6 6 6 6 6 5 5 5 5 4 4 4 4 4 4 3 4 3 4 4 3 3 3
10 10 10 9 9 9 9 9 9 9 8 8 8 7 7 6 6 5 5 5 5 5 5 5 5 5 5 4 4 4 4 4 4 3 3 3 3 3 3 3 3 3 3
10 9 9 9 9 9 9 9 8 8 8 7 7 7 6 6 6 5 5 4 4 4 5 5 5 5 4 4 4 4 4 4 3 3 3 3 3 3 3 3 3 2 2
9 9 9 9 9 9 8 8 8 7 7 7 6 6 6 5 5 5 5 4 4 3 3 4 4 4 4 4 4 4 3 3 3 3 3 2 2 2 2 2 2 2 2
8 8 8 8 8 8 8 8 7 7 7 6 6 5 5 5 5 5 4 4 3 3 3 3 3 4 3 3 3 3 3 3 3 3 2 2 2 2 2 2 2 1 1
8 8 8 8 7 7 7 7 7 6 6 6 5 5 5 4 4 4 4 4 3 3 3 3 3 3 3 3 3 3 3 3 2 2 2 2 1 1 1 1 1 1 1
7 7 7 7 7 7 7 6 6 6 6 5 5 4 4 4 4 4 4 3 3 3 2 2 3 3 3 3 3 3 2 2 2 2 2 1 1 1 1 1 1 1 1
7 6 6 7 6 6 6 6 6 5 5 4 4 4 4 4 3 3 3 3 3 3 2 2 2 2 2 2 2 2 2 2 2 2 1 1 1 1 1 1 0 0 0
6 6 6 6 6 6 5 5 5 4 4 4 4 3 3 3 3 3 3 3 2 2 2 2 2 2 2 2 2 2 2 2 1 1 1 1 1 1 0 0 0 0 -0
5 5 5 5 5 5 5 4 4 4 4 3 3 3 3 2 2 2 2 2 2 2 2 2 1 1 1 1 1 1 0 1 1 1 1 1 0 0 0 0 0 -0 -0
5 5 5 4 4 4 4 4 3 3 3 3 3 3 2 2 2 2 2 2 2 2 1 1 1 1 1 1 0 -0 -0 -1 -0 0 -0 0 0 0 0 -0 -0 -0 -0
4 4 4 4 4 3 3 3 3 3 3 2 2 2 2 2 2 2 2 2 2 1 1 1 1 0 0 -0 -0 -0 -1 -1 -1 -1 -1 -1 -0 -0 -0 -0 -0 -0 -1
3 3 3 3 3 3 2 3 2 2 2 2 2 2 2 2 1 1 1 1 2 1 1 1 0 0 -0 -0 -1 -1 -1 -1 -1 -1 -2 -2 -1 -1 -1 -0 -1 -1 -1
2 2 2 2 2 2 2 2 2 2 2 2 1 1 1 1 1 1 1 1 1 1 1 0 0 -0 -0 -1 -1 -1 -2 -2 -2 -1 -2 -2 -2 -2 -1 -1 -1 -1 -1
1 1 1 1 1 1 1 1 1 1 1 1 1 1 1 1 1 0 0 0 0 0 0 0 0 -0 -0 -1 -1 -2 -2 -3 -3 -3 -2 -2 -2 -2 -2 -1 -1 -1 -1

GEFSMA_850_meantemp_264.txt.gz
Temperature
14 14 14 13 13 13 13 13 13 13 13 12 12 12 12 12 12 11 11 11 11 10 10 9 9 9 9 8 8 8 8 8 8 8 8 8 8 8 8 8 8 8 8
13 13 13 13 13 13 13 13 13 12 12 12 12 12 12 11 11 11 11 11 10 10 10 9 9 9 8 8 8 8 8 8 8 8 7 7 7 7 7 7 7 7 7
13 13 13 13 13 13 13 12 12 12 12 12 12 11 11 11 11 11 10 10 10 10 10 9 9 8 8 8 8 8 7 7 7 7 7 7 7 7 7 7 7 7 7
13 12 12 12 12 12 12 12 12 12 12 12 11 11 11 11 11 10 10 10 10 9 9 9 9 8 8 8 7 7 7 7 7 7 7 7 7 7 7 7 7 7 7
12 12 12 12 12 12 12 12 12 11 11 11 11 11 11 11 10 10 10 9 9 9 9 8 8 8 8 8 7 7 7 6 6 6 6 6 6 6 6 7 6 6 6
12 12 12 12 12 12 11 11 11 11 11 11 11 10 10 10 10 10 9 9 9 9 8 8 8 8 7 7 7 7 6 6 6 6 6 6 6 6 6 6 6 6 6
12 12 12 11 11 11 11 11 11 11 11 10 10 10 10 10 9 9 9 9 8 8 8 8 7 7 7 7 7 6 6 6 6 6 6 6 6 6 6 6 6 6 6
11 11 11 11 11 11 11 11 11 10 10 10 10 9 9 9 9 9 9 8 8 8 8 7 7 7 7 6 6 6 6 6 5 5 5 5 5 5 5 5 5 5 5
11 11 11 11 11 11 11 10 10 10 10 10 9 9 9 9 8 8 8 8 8 8 7 7 7 7 6 6 6 6 6 5 5 5 5 5 5 5 5 5 5 5 5
10 10 10 10 10 10 10 10 10 10 9 9 9 9 8 8 8 8 8 8 7 7 7 7 6 6 6 6 6 6 5 5 5 5 5 5 5 5 5 5 4 4 4
10 10 10 10 10 10 10 10 9 9 9 9 9 8 8 8 7 7 7 7 7 7 7 6 6 6 6 5 5 5 5 5 5 4 4 4 4 4 4 4 4 4 4
9 9 9 9 9 9 9 9 9 9 8 8 8 8 8 7 7 6 6 7 7 7 7 6 6 5 5 5 5 5 4 4 4 4 4 4 4 4 4 4 3 3 3
9 9 9 9 9 9 9 8 8 8 8 8 8 7 7 7 6 6 6 6 5 6 6 6 5 5 5 5 4 4 4 4 4 4 4 4 3 3 3 3 3 3 3
9 9 9 9 9 8 8 8 8 8 8 8 7 7 7 6 6 5 5 5 4 5 5 5 5 5 5 4 4 4 4 4 4 3 3 3 3 3 3 3 3 3 3
8 8 8 8 8 8 8 8 7 7 7 7 7 6 6 6 5 5 5 4 4 3 4 5 4 4 4 4 4 4 4 4 3 3 3 3 3 3 3 2 2 2 2
7 8 7 8 8 8 7 7 7 7 7 6 6 6 6 5 5 5 4 4 4 3 3 4 4 4 4 4 3 3 3 3 3 3 3 3 3 2 2 2 2 2 2
7 7 7 7 7 7 7 6 6 6 6 6 6 5 5 5 5 4 4 4 3 3 3 3 3 3 3 3 3 3 3 3 3 3 2 2 2 2 2 2 1 1 1
6 6 6 6 6 6 6 6 6 6 6 5 5 5 5 5 4 4 4 3 3 3 3 3 3 3 3 3 3 3 2 2 2 2 2 2 2 2 2 1 1 1 1
6 6 6 6 6 6 6 5 5 5 5 5 5 4 4 4 4 3 3 3 3 3 2 2 2 3 2 2 2 2 2 2 2 1 1 1 1 1 1 1 1 1 1
5 5 5 5 5 5 5 5 5 5 4 4 4 4 4 3 3 3 3 3 2 2 2 2 2 2 2 2 2 1 2 2 1 1 1 1 1 1 1 1 1 1 1
4 4 4 5 4 4 4 4 4 4 4 4 4 3 3 3 3 2 2 2 2 2 2 2 2 1 1 1 1 1 1 1 1 1 1 1 1 1 1 1 1 0 0
4 4 4 4 4 4 4 3 3 3 3 3 3 3 3 3 2 2 2 2 2 1 1 1 1 1 1 1 0 0 -0 -0 -0 0 -0 0 0 0 0 0 0 0 -0
3 3 3 3 3 3 3 3 3 3 3 3 3 2 2 2 2 2 2 2 1 1 1 1 1 1 0 0 -0 -0 -0 -1 -1 -1 -1 -0 0 -0 -0 -0 -0 -0 -0
2 2 2 2 2 2 2 2 2 2 2 2 2 2 2 2 2 1 1 1 1 1 1 1 0 0 0 -0 -1 -1 -1 -1 -1 -1 -1 -1 -1 -0 -0 -0 -0 -1 -1
1 1 1 2 2 1 1 1 1 1 2 2 2 1 1 1 1 1 1 1 1 1 1 0 0 -0 -0 -1 -1 -1 -1 -1 -1 -1 -1 -2 -2 -1 -1 -0 -1 -1 -1
1 1 1 1 1 1 1 1 1 1 1 1 1 1 1 1 1 0 0 0 0 0 0 0 0 -0 -0 -1 -1 -1 -1 -2 -2 -2 -2 -2 -2 -3 -2 -1 -1 -1 -1